Regional Weather Roundup
Issued by NWS

Home | Current Version | Previous Version | Text Only | Print | Product List | Glossary Off
Versions: 1 2 3 4 5 6 7 8 9 10 11 12 13 14 15 16 17 18 19 20 21 22 23 24 25 26 27 28 29 30 31 32 33 34 35 36 37 38 39 40 41 42 43 44 45 46 47 48 49 50

000
ASUS43 KOAX 230802
RWRNE

WEATHER ROUNDUP FOR NEBRASKA
NATIONAL WEATHER SERVICE OMAHA NE
300 AM CDT SAT AUG 23 2014

NOTES: SATELLITE DATA IS BEING USED TO AUGMENT CLOUD COVER ABOVE
       12000 FEET.
       "FAIR" INDICATES FEW OR NO CLOUDS BELOW 12,000 FEET WITH NO
       SIGNIFICANT WEATHER AND/OR OBSTRUCTIONS TO VISIBILITY.

  * THESE STATIONS DO NOT REPORT WEATHER SUCH AS RAIN...SNOW OR FOG.

NEZ001>004-019>022-054>056-230900-
NEBRASKA PANHANDLE

CITY           SKY/WX    TMP DP  RH WIND       PRES   REMARKS
SCOTTSBLUFF    CLOUDY    63  60  90 E5        29.96F
ALLIANCE       CLOUDY    63  62  97 NE5       29.96F
CHADRON        LGT RAIN  66  61  84 SE7       29.95F
KIMBALL        CLOUDY    60  59  97 CALM      29.99F
SIDNEY         MOCLDY    60  58  92 W3        29.98F
$$

NEZ057>060-069>072-079>082-230900-
SOUTHWEST NEBRASKA

CITY           SKY/WX    TMP DP  RH WIND       PRES   REMARKS
NORTH PLATTE   CLOUDY    66  65  96 E8        29.87F
IMPERIAL       MOCLDY    66  63  90 NE3       29.92S
LEXINGTON      CLOUDY    67  65  96 CALM      29.86F
MCCOOK         MOCLDY    67  66  97 E7        29.88F
OGALLALA       CLOUDY    64  62  94 CALM      29.93R
$$

NEZ005>010-023>029-035>040-094-230900-
NORTH CENTRAL NEBRASKA

CITY           SKY/WX    TMP DP  RH WIND       PRES   REMARKS
VALENTINE      HVY RAIN  65  63  93 NE13      29.93F FOG
AINSWORTH      DRIZZLE   68  67  96 S7        29.92S
BROKEN BOW     CLOUDY    68  32  26 E5        29.86F
O`NEILL        LGT RAIN  68  67  94 S9        29.93S
ORD            LGT RAIN  68  66  93 CALM      29.88F
THEDFORD       CLOUDY    67  66  96 CALM      29.91F
$$

NEZ041-046>049-061>064-073>077-083>087-230900-
SOUTH CENTRAL NEBRASKA

CITY           SKY/WX    TMP DP  RH WIND       PRES   REMARKS
GRAND ISLAND   CLOUDY    68  66  93 E13       29.90F
AURORA         CLOUDY    69  69  98 E7        29.92F
HASTINGS       CLOUDY    68  64  87 E9        29.89F
HEBRON         CLOUDY    72  66  82 NE9       29.92R
HOLDREGE       CLOUDY    67  65  94 NE7       29.88F
KEARNEY *      CLOUDY    66  64  94 NE6       29.88F
YORK           CLOUDY    68 N/A N/A NE7       29.94F
$$

NEZ011>018-030>034-042>045-230900-
NORTHEAST NEBRASKA

CITY           SKY/WX    TMP DP  RH WIND       PRES   REMARKS
NORFOLK        LGT RAIN  69  66  90 SE8       29.95S
ALBION         LGT RAIN  67  65  93 SE9       29.95R
BLAIR          TSTM      71  68  92 NW9       29.95F
FREMONT        RAIN      70  68  93 CALM      29.96F
TEKAMAH        LGT RAIN  71  68  90 N8        29.96F
WAYNE          TSTM      69  67  94 SE7       29.98S
$$

NEZ050>053-065>068-078-088>093-230900-
SOUTHEAST NEBRASKA

CITY           SKY/WX    TMP DP  RH WIND       PRES   REMARKS
LINCOLN        LGT RAIN  69  68  96 NE12      29.94F
OMAHA EPPLEY   TSTM      72  68  87 N7        29.95R
BEATRICE       LGT RAIN  72  70  93 N13       29.93R
FALLS CITY     CLOUDY    77  75  93 SE6       29.86F
NEBRASKA CITY  CLOUDY    73  73 100 N10G18    29.92R
PLATTSMOUTH    TSTM      70  68  92 NW14G20   29.92F
$$

NEZ044-045-051>053-067-230900-
OMAHA AREA

CITY           SKY/WX    TMP DP  RH WIND       PRES   REMARKS
OMAHA EPPLEY   TSTM      72  68  87 N7        29.95R
BLAIR          TSTM      71  68  92 NW9       29.95F
FREMONT        RAIN      70  68  93 CALM      29.96F
MILLARD        TSTM      71  69  93 NW6       29.93F
OFFUTT AFB     TSTM      71  71 100 NW9G20    29.93F FOG
PLATTSMOUTH    TSTM      70  68  92 NW14G20   29.92F
WAHOO          RAIN      70  67  90 NW3       29.96F
$$



USA.gov is the U.S. government's official web portal to all federal, state and local government web resources and services.